Theta_e
361 362 360 360 360 360 361 361 361 360 363 361 359 362 362 364 366 364 364 365 365 364 365 367 367 366 365 366 368 368 367 366 366 366 366 365 362 360 356 358 360 360
362 362 363 362 363 364 363 362 363 362 364 365 364 364 367 367 367 365 364 363 365 364 367 366 368 368 367 365 368 367 367 367 365 363 365 365 364 362 359 360 358 361
361 362 361 360 359 360 358 361 363 363 361 362 364 367 366 367 367 367 365 365 364 363 367 368 367 368 367 367 368 367 364 368 365 364 366 365 364 364 364 359 359 359
362 362 360 360 359 360 361 362 362 363 362 363 362 362 364 362 367 367 368 367 367 367 366 366 366 366 367 367 368 366 366 368 365 368 366 366 365 363 362 363 361 360
361 361 361 361 361 363 364 362 359 360 361 361 362 364 366 366 367 365 366 367 369 367 367 367 367 367 368 368 369 367 367 365 367 369 366 365 368 366 363 363 363 360
362 363 364 362 364 363 360 360 361 360 362 361 362 363 363 365 365 364 364 364 363 363 362 364 366 366 366 367 369 368 367 364 366 368 366 365 365 367 363 364 363 362
359 361 361 361 361 362 361 362 363 364 362 362 365 363 364 363 363 365 366 364 363 365 363 365 367 367 367 368 369 368 368 368 368 370 367 365 367 366 365 366 366 364
358 359 361 362 360 361 361 362 363 364 365 365 363 364 365 362 364 363 365 365 364 365 366 366 368 370 366 366 367 366 366 364 366 368 368 368 367 367 367 366 366 365
358 358 360 360 358 358 357 357 359 362 365 364 362 362 365 364 364 363 366 367 366 366 368 367 369 368 368 368 367 367 366 364 363 366 366 366 366 367 366 367 365 365
357 357 356 356 355 357 356 357 356 358 363 362 362 362 363 366 365 365 367 368 366 367 368 368 368 367 367 368 368 368 368 368 368 367 366 366 365 365 366 366 364 364
355 355 355 355 354 354 355 355 356 356 359 360 359 360 362 364 367 368 368 368 364 366 367 368 367 368 368 366 367 368 368 367 367 368 367 367 366 367 366 367 366 364
358 356 355 355 355 354 355 355 356 356 357 358 359 359 361 360 363 364 365 367 366 366 367 368 369 369 369 369 366 367 368 367 367 368 366 367 366 366 367 366 365 366
360 360 359 356 357 357 357 357 357 356 356 356 358 358 358 357 358 361 364 363 365 364 363 365 367 366 369 370 368 368 368 368 364 365 366 366 366 364 364 365 365 365
362 362 362 360 360 362 361 359 358 358 359 359 359 359 357 356 356 356 358 360 361 361 364 365 366 365 367 369 368 366 365 366 366 365 363 364 364 366 364 363 364 364
360 361 363 363 361 361 361 360 360 360 360 361 361 359 357 357 358 357 357 358 360 361 362 362 360 361 363 365 366 367 366 363 365 365 365 364 364 362 362 364 364 362
359 359 359 360 360 360 361 361 360 360 359 359 358 359 359 359 359 358 357 356 357 359 360 358 359 360 364 359 358 362 364 362 363 365 365 364 364 364 361 361 361 361
358 358 358 357 359 361 362 361 362 361 360 360 359 358 358 361 359 356 355 355 354 355 356 355 357 358 358 343 340 341 357 361 363 364 365 365 363 364 363 360 360 361
353 353 354 355 356 357 358 359 360 360 359 359 357 356 358 356 356 358 358 356 354 354 353 353 355 341 333 338 339 336 344 359 360 360 360 361 361 360 361 361 361 361
350 351 351 351 352 354 356 356 355 354 355 355 356 357 356 357 357 356 357 357 357 356 354 356 356 334 329 330 331 332 332 346 357 359 359 359 360 360 361 362 362 362
349 348 347 347 348 348 351 353 354 354 355 355 355 356 355 354 354 356 357 359 359 359 360 352 348 331 325 326 326 326 329 338 356 356 358 358 360 360 359 360 361 361
345 345 345 346 348 349 349 349 348 347 348 350 350 351 351 352 353 353 353 354 355 356 354 348 339 323 322 322 321 324 326 339 356 353 354 356 358 358 360 360 361 359
341 341 342 342 342 342 341 340 341 344 345 347 345 346 349 350 352 352 351 351 352 353 351 348 338 319 321 321 320 323 328 355 358 356 355 355 356 357 357 359 359 359
342 341 341 341 342 341 340 342 343 343 345 344 344 346 346 347 348 349 350 349 349 349 347 343 336 323 316 316 318 321 339 358 357 357 357 357 356 356 356 356 355 356
342 343 343 342 341 340 340 341 343 344 344 345 343 341 341 341 342 342 344 346 346 346 344 338 335 324 314 313 315 317 341 355 355 356 357 358 358 358 358 360 359 353
341 340 340 340 340 340 341 341 340 342 343 343 342 341 339 340 340 338 338 341 344 343 342 338 336 330 315 313 313 314 337 353 353 355 355 355 355 357 358 359 360 357
338 337 337 337 335 335 337 337 338 338 337 337 338 338 336 336 337 337 335 335 338 341 341 340 337 334 326 313 312 313 318 344 344 344 345 348 350 352 353 356 356 358
Wind_Speed
7 7 7 7 6 6 6 7 6 6 6 5 5 5 5 5 5 6 6 5 5 6 5 5 4 5 4 4 3 3 2 2 2 1 3 3 3 3 3 2 2 2
9 8 6 6 5 5 5 6 6 6 6 6 5 4 4 4 5 6 6 6 6 6 6 5 5 5 5 4 3 3 2 3 4 2 2 3 3 3 3 3 3 2
9 8 8 8 7 8 8 7 6 6 6 6 5 4 4 4 5 6 6 7 6 6 6 5 5 5 5 5 4 4 3 3 4 4 3 4 4 3 4 3 3 3
9 9 8 8 8 7 7 6 6 5 5 5 6 5 4 3 4 6 6 6 5 5 5 5 5 5 5 5 4 4 4 4 4 3 4 4 4 4 4 3 3 3
10 9 8 7 7 6 6 6 7 6 6 6 5 5 4 5 5 5 5 5 5 5 5 5 5 5 5 4 4 4 4 4 4 4 4 4 4 4 4 3 4 4
9 8 8 7 7 7 7 7 7 7 7 6 6 5 5 6 6 6 6 6 6 6 5 5 5 5 5 5 4 4 4 4 3 4 4 5 5 3 4 3 4 5
9 8 9 7 7 7 7 7 6 6 6 5 5 6 5 6 6 6 6 6 6 5 5 5 5 5 4 4 4 5 5 5 4 4 5 5 4 5 4 4 4 5
9 8 8 7 8 8 8 7 6 6 5 5 6 6 6 6 7 6 6 6 6 6 6 6 5 6 6 5 5 5 6 5 5 5 5 5 5 5 5 4 4 5
9 8 8 9 10 9 10 9 7 6 5 5 5 5 6 6 6 6 6 6 6 5 5 6 6 6 5 6 5 6 6 6 5 5 5 5 5 5 5 4 5 5
9 8 10 10 10 9 10 9 8 6 6 6 5 5 6 6 6 6 6 6 6 6 6 6 6 6 6 6 6 6 6 6 6 6 5 5 5 5 5 4 5 5
9 10 10 10 11 9 10 9 8 7 6 7 6 6 6 6 6 6 6 7 7 7 7 7 7 7 6 6 6 6 6 6 6 6 6 6 6 5 5 5 5 6
9 9 10 11 10 10 9 9 8 8 7 7 8 7 7 6 6 6 6 6 6 6 6 6 6 6 6 6 6 6 6 6 6 6 6 6 6 5 5 5 5 6
8 9 9 10 9 9 8 7 8 8 8 8 8 8 7 7 7 6 5 5 5 6 6 5 6 5 5 5 6 6 6 6 6 6 6 6 6 6 6 6 6 6
8 8 8 8 7 7 7 7 7 7 7 7 6 7 7 7 7 7 6 6 6 5 5 5 4 5 5 5 5 5 5 6 6 6 6 6 6 6 6 6 6 6
8 7 5 6 6 6 7 7 7 7 6 6 6 6 6 6 6 7 6 6 5 5 5 5 5 4 4 4 5 5 6 6 6 6 6 6 7 7 6 6 6 7
6 5 4 7 7 7 7 7 7 7 7 7 7 7 6 5 5 5 5 6 6 5 5 5 5 4 5 6 6 5 5 5 5 5 6 6 6 7 7 8 8 7
5 5 5 6 7 7 5 5 5 5 5 5 5 5 5 4 4 5 5 4 5 5 5 4 4 4 3 6 7 8 6 6 5 6 6 6 7 7 7 8 8 7
5 6 6 5 3 4 5 5 5 4 5 5 5 5 4 4 4 3 2 2 2 3 3 2 1 11 7 2 5 6 7 6 6 6 6 6 6 7 7 7 7 7
3 4 4 4 3 4 4 5 6 6 6 6 6 5 3 3 3 3 3 2 2 2 2 4 5 8 5 4 1 4 7 7 6 6 6 6 6 6 6 6 6 6
6 6 7 6 6 4 5 5 6 5 5 5 5 5 4 4 3 3 3 3 3 4 6 7 7 9 8 6 3 1 4 6 5 6 6 6 6 6 6 6 6 6
9 7 6 5 5 6 5 3 4 5 5 5 6 5 6 4 3 4 4 3 3 4 6 7 6 9 7 7 6 4 2 5 2 3 3 3 4 4 4 4 5 5
6 8 10 9 8 7 7 8 7 7 7 5 7 5 5 6 5 5 5 5 4 5 5 7 7 10 9 8 6 5 4 2 1 1 1 1 1 1 2 2 3 3
7 9 9 8 7 7 6 4 3 4 5 5 5 6 7 7 8 7 7 8 7 7 7 8 7 10 10 10 9 7 3 2 2 1 0 1 1 0 1 1 1 0
8 8 7 6 7 7 9 8 6 5 7 6 7 7 8 8 8 8 8 7 8 7 7 7 7 9 12 12 11 10 5 2 1 1 1 0 1 2 1 0 2 2
8 9 9 7 8 9 10 9 9 7 6 7 7 7 7 6 7 8 9 7 7 8 10 8 8 9 12 13 13 13 7 4 3 1 1 2 4 3 2 2 0 3
8 9 9 9 9 8 8 8 8 8 8 7 7 6 6 6 6 7 9 8 7 6 7 7 9 9 11 13 14 15 14 6 5 5 5 4 4 5 4 3 3 1
Wind_Direction
191 190 199 202 207 211 207 205 209 210 213 219 219 214 215 213 212 213 215 215 218 226 228 233 234 236 236 236 243 259 269 268 282 230 236 260 280 281 274 270 269 269
192 192 194 200 203 203 209 213 208 211 208 214 224 216 210 204 203 212 210 214 217 225 229 226 222 225 232 233 227 244 256 256 261 240 245 247 268 275 272 274 285 298
194 194 196 201 208 209 215 211 214 215 218 219 217 219 215 204 204 200 206 213 218 223 213 219 218 220 222 224 229 238 240 245 257 259 257 264 269 270 278 280 277 273
197 198 201 207 212 207 203 199 204 212 217 206 217 219 220 218 202 196 199 205 220 222 222 214 218 218 215 218 222 235 236 242 249 264 265 263 265 274 277 268 273 275
198 196 199 205 209 207 198 201 207 201 210 213 213 205 205 208 207 206 202 205 212 219 212 218 219 225 219 221 221 237 236 241 226 228 246 260 262 261 273 270 268 275
197 194 195 198 197 199 206 206 204 204 207 205 210 204 207 201 210 209 207 212 212 216 221 221 221 224 224 222 224 239 246 247 230 221 241 253 268 268 275 275 274 271
201 198 198 198 202 198 209 208 205 204 205 212 191 203 197 199 204 209 209 214 220 218 223 220 223 230 229 230 230 234 240 251 254 238 245 255 256 266 267 262 270 278
206 199 197 196 202 198 208 206 204 200 199 194 202 197 199 202 203 205 208 211 219 217 220 221 215 214 223 221 227 234 242 238 233 235 245 255 264 266 265 265 272 278
202 200 198 202 208 207 211 213 207 204 190 201 211 196 193 206 204 206 196 202 213 217 217 222 218 220 216 215 219 224 234 246 249 242 246 256 257 261 266 268 270 271
199 205 207 209 215 216 218 219 221 213 197 208 212 210 195 198 206 205 197 197 207 208 213 218 215 218 217 215 217 222 226 228 232 234 242 249 256 266 270 267 272 275
205 206 207 213 220 221 220 221 221 223 211 215 220 220 212 201 195 201 200 199 209 210 211 212 216 217 217 222 220 220 224 231 233 229 233 238 248 255 258 263 267 271
209 210 211 213 219 223 224 220 219 220 218 213 220 224 221 221 212 207 205 210 217 222 223 224 222 220 219 227 227 221 218 227 229 233 238 240 246 248 251 254 263 267
208 213 215 219 214 220 222 215 216 219 220 220 215 221 225 231 224 222 209 225 225 231 237 236 234 234 228 230 235 234 229 230 239 239 238 240 244 251 256 255 257 261
207 210 217 220 218 212 214 219 219 218 219 223 220 218 225 230 235 230 224 225 232 238 237 244 241 243 237 237 241 244 243 240 240 245 251 248 250 249 255 258 257 258
215 215 212 212 217 212 214 216 215 213 212 216 216 224 224 224 227 233 232 232 231 231 238 238 241 242 243 240 243 240 244 253 250 248 250 255 258 262 260 256 258 260
189 185 202 220 216 213 211 210 215 213 213 208 206 210 207 211 214 219 229 230 229 224 227 233 233 239 222 219 237 261 267 271 267 261 263 264 265 269 269 265 264 267
182 183 194 215 221 219 201 200 197 195 195 188 188 192 193 180 199 200 212 219 226 232 225 227 236 238 208 215 224 236 255 263 263 262 260 256 256 257 265 270 273 273
191 196 207 219 230 240 221 206 188 173 171 162 166 160 162 181 172 152 148 187 206 217 222 224 103 32 8 352 240 230 226 248 255 258 256 254 256 260 263 269 273 275
172 173 170 167 204 231 215 200 191 187 180 173 160 157 152 164 149 152 136 128 121 133 117 94 73 18 13 23 169 211 215 228 248 251 254 255 259 260 266 269 273 276
153 136 137 136 142 188 224 205 192 178 166 157 144 150 151 158 170 132 111 105 98 105 86 61 45 10 0 21 18 288 193 197 233 240 244 255 260 264 269 271 273 276
133 128 119 123 141 155 149 119 87 72 75 70 62 75 106 100 103 109 98 102 116 114 94 69 45 12 17 14 10 343 172 218 239 234 231 230 238 246 256 265 270 271
103 107 108 101 93 82 79 80 67 54 57 77 110 106 90 105 104 106 116 121 118 107 96 72 50 19 14 18 18 9 278 214 148 270 272 272 214 206 222 232 248 263
98 103 106 107 101 98 96 97 112 115 115 119 108 102 97 92 95 88 87 89 92 94 86 70 52 19 13 19 20 10 306 121 127 135 130 292 22 4 191 151 121 57
101 97 90 90 100 108 109 106 101 97 101 96 92 93 90 87 90 87 81 84 89 92 94 89 66 36 25 22 19 13 3 91 99 113 153 281 259 281 299 343 88 71
72 87 90 80 89 93 94 91 91 89 85 80 77 75 75 79 79 81 78 57 56 83 77 72 67 49 35 30 25 16 9 70 40 7 338 339 302 285 292 293 241 110
73 87 91 88 80 68 65 71 81 79 77 82 75 73 79 67 70 74 79 78 71 69 76 73 62 53 37 36 34 28 12 26 54 59 42 19 354 339 315 304 334 78